Home   Weather   Chur   Past weeks

Flag for Switzerland Past Weather in Chur, Graubünden, Switzerland — Yesterday and Last 2 Weeks

Now
40 °F

Chilly.


Feels Like: 40 °F
Forecast: 34 / 51 °F
Wind: 2 mph from South

Location: Chur

Current Time: Feb 27, 2017 at 12:53:46 am

Latest Report: Feb 27, 2017 at 12:00 am


Visibility: N/A

Pressure: 30.06 "Hg (27.95 "Hg at 592m altitude)

Humidity: 69%

Dew Point: 30 °F

Location of ChurLocation

Past Weather in Chur — Graph

°F

Chur Temperature Yesterday

Maximum temperature yesterday: 51 °F (at 4:00 pm)
Minimum temperature yesterday: 32 °F (at 6:00 am)
Average temperature yesterday: 42 °F

High & Low Weather Summary for the Past Weeks

 TemperatureHumidityPressure
High67 °F (Feb 23, 3:00 pm)95% (Feb 18, 1:00 am)30.67 "Hg (Feb 18, 1:00 am)
Low30 °F (Feb 19, 6:00 am)17% (Feb 23, 4:00 pm)29.59 "Hg (Feb 23, 4:00 pm)
Average43 °F61%30.25 "Hg
* Reported Feb 11 11:00 pm — Feb 26 11:00 pm, Chur, Weather by CustomWeather, © 2017

Note: Actual official high and low records may vary slightly from our data, if they occured in-between our weather recording intervals... More about our weather records

Advertising

Chur Weather History for the Previous 24 Hours

Scroll right to see more
 ConditionsComfort  
Time TempWeatherWind HumidityBarometerVisibility
11:00 pm
Sun, Feb 26
42 °FQuite cool.2 mph64%30.06 "HgN/A
10:00 pm42 °FFog.1 mph63%30.06 "Hg4 mi
9:00 pm43 °FQuite cool.3 mph63%30.06 "HgN/A
8:00 pm42 °FQuite cool.No wind70%30.07 "HgN/A
7:00 pm45 °FOvercast.1 mph55%30.06 "Hg11 mi
6:00 pm49 °FCool.1 mph48%30.03 "HgN/A
5:00 pm50 °FCool.1 mph46%30.01 "HgN/A
4:00 pm51 °FOvercast.2 mph36%30.02 "Hg12 mi
3:00 pm50 °FCool.5 mph38%30.04 "HgN/A
2:00 pm49 °FCool.2 mph41%30.07 "HgN/A
1:00 pm48 °FOvercast.2 mph40%30.10 "Hg16 mi
12:00 pm45 °FCool.2 mph44%30.13 "HgN/A
11:00 am44 °FQuite cool.1 mph46%30.14 "HgN/A
10:00 am40 °FOvercast.1 mph47%30.15 "Hg16 mi
9:00 am36 °FChilly.3 mph59%30.19 "HgN/A
8:00 am35 °FChilly.9 mph60%30.19 "HgN/A
7:00 am33 °FClear.6 mph64%30.19 "Hg16 mi
6:00 am32 °FChilly.1 mph73%30.19 "HgN/A
5:00 am36 °FChilly.6 mph54%30.16 "HgN/A
4:00 am37 °FFog.3 mph53%30.16 "Hg6 mi
3:00 am37 °FChilly.8 mph52%30.16 "HgN/A
2:00 am37 °FChilly.6 mph53%30.17 "HgN/A
1:00 am38 °FFog.7 mph50%30.18 "Hg6 mi
12:00 am38 °FChilly.6 mph54%30.19 "HgN/A
Weather by CustomWeather, © 2017

See weather overviewHow to use our weather pages